Location: Kniewo
(53.4167°N, 14.7000°E)
Time: 22:16:38
(UTC+00:00)

Daily predictions for brighter satellites

Satellite Brightness Start Highest point End
(mag) Time Altitude Azimuth Time Altitude Azimuth Time Altitude Azimuth
Cosmos 2279 Rocket 4.0 16:55:09 10° N 17:01:27 83° E 17:07:44 10° SSE
Cosmos 1850 Rocket 4.2 16:58:13 10° S 17:03:14 49° ESE 17:08:20 10° NE
Cosmos 1844 Rocket 3.5 17:00:02 10° NNW 17:05:13 34° NE 17:10:23 10° ESE
Cosmos 2369 3.8 16:59:54 10° SSW 17:05:31 61° ESE 17:11:09 10° NE
Cosmos 1954 Rocket 4.4 17:00:34 10° SW 17:05:44 70° WNW 17:10:56 10° NNE
Cosmos 1733 Rocket 3.2 17:02:09 10° S 17:06:30 57° E 17:10:54 10° NNE
Cosmos 2221 Rocket 3.6 17:03:42 10° N 17:08:15 79° ENE 17:12:48 10° SSE
COBE Rocket 3.9 17:04:59 10° SSE 17:09:40 55° ENE 17:14:17 10° N
Cosmos 1943 Rocket 4.4 17:07:40 10° NNW 17:09:59 12° N 17:12:17 10° NNE
Cosmos 2278 4.2 17:06:14 10° S 17:11:26 38° ESE 17:16:39 10° NE
Cosmos 1570 Rocket 4.2 17:07:06 10° NNW 17:12:18 53° ENE 17:17:24 10° SE
SL-16 R/B 3.3 17:08:30 10° SSE 17:12:38 21° E 17:16:48 10° NE
PAYLOAD B 4.3 17:09:28 10° SSE 17:15:00 87° ENE 17:20:32 10° NNW
BREEZE-M DEB (TANK) 4.1 17:17:35 10° WSW 17:19:13 18° SSW 17:21:16 10° SSE
Cosmos 2278 Rocket 4.1 17:15:47 10° NNW 17:19:15 16° NNE 17:22:43 10° ENE
COSMO-SKYMED 1 2.5 17:19:40 10° NNE 17:24:03 81° ESE 17:28:24 10° SSW
Cosmos 2263 Rocket 2.7 17:19:03 10° NW 17:24:42 64° WSW 17:30:19 10° SSE
Resurs 01 Rocket 3.6 17:23:47 10° ENE 17:25:39 13° NE 17:27:31 10° NNE
Meteor 1-24 Rocket 4.0 17:21:13 10° N 17:26:14 40° ENE 17:31:16 10° SE
Cosmos 1975 4.4 17:22:42 10° SW 17:26:32 40° WNW 17:30:22 10° N
Cosmos 2369 Rocket 4.5 17:25:23 10° NW 17:28:21 14° N 17:31:20 10° NNE
SJ-6B 3.9 17:26:35 11° ESE 17:29:29 24° ENE 17:32:35 10° N
Spot 1 4.0 17:25:23 10° NNE 17:29:33 55° ESE 17:33:34 10° S
ASTEX 1 3.4 17:25:00 10° N 17:30:01 87° E 17:35:01 10° S
Cosmos 1437 Rocket 3.5 17:28:28 10° SSE 17:31:41 28° E 17:34:56 10° NNE
H-2A R/B 4.2 17:30:45 12° ENE 17:31:58 13° NE 17:33:52 10° NNE
HJ-1C 3.1 17:30:21 10° SSE 17:33:26 66° ENE 17:36:33 10° N
Cosmos 1741 Rocket 4.0 17:29:23 10° SSW 17:34:40 79° ESE 17:39:57 10° NNE
Cosmos 1814 Rocket 4.1 17:30:52 10° NNW 17:36:10 80° WSW 17:41:21 10° SSE
USA 267 4.0 17:29:53 10° SE 17:36:14 51° SW 17:42:37 10° WNW
Feng Yun 1-1 Rocket 4.2 17:31:02 10° SSE 17:36:25 63° ENE 17:41:45 10° NNW
IRIDIUM 104 4.3 17:31:50 10° SSE 17:36:58 61° E 17:42:08 10° N
SL-4 R/B 3.5 17:33:42 10° W 17:37:43 35° SSW 17:41:54 10° SE
Cosmos 1844 4.1 17:34:22 10° NNW 17:39:44 45° NE 17:44:18 14° ESE
Cosmos 2084 Rocket 3.1 17:36:12 10° NW 17:40:02 81° NE 17:43:23 14° SE
Cosmos 2208 Rocket 4.1 17:35:31 10° NNW 17:40:55 69° ENE 17:46:20 10° SE
Cosmos 2227 4.4 17:36:25 10° NW 17:42:03 75° WSW 17:47:39 10° SSE
Cosmos 1805 3.7 17:39:20 10° SSW 17:43:11 66° WNW 17:47:05 10° N
Cosmos 1242 Rocket 3.6 17:41:05 10° SSW 17:44:31 47° WNW 17:47:57 10° N
IRIDIUM 114 4.3 17:40:54 10° S 17:46:05 72° E 17:51:19 10° N
Okean-O 3.3 17:42:56 13° SE 17:46:18 34° ENE 17:50:18 10° N
ISS -0.8 17:45:55 10° WSW 17:47:09 12° SW 17:48:24 10° SSW
CZ-4 R/B 1.4 17:44:52 10° SSE 17:49:03 80° ENE 17:53:15 10° NNW
Cosmos 1697 Rocket 3.7 17:44:36 10° WSW 17:50:01 47° NW 17:55:30 10° NNE
IGS 5A 4.0 17:48:12 15° SE 17:51:14 37° ENE 17:55:04 10° N
BREEZE M DEB (TANK) 4.2 17:48:22 10° SSW 17:51:49 16° SSE 17:53:02 14° SE
Meteor 1-12 Rocket 4.3 17:46:27 10° S 17:52:23 66° E 17:58:22 10° NNE
CSL-04 Debris 4.3 17:47:12 10° SE 17:52:25 52° ENE 17:57:38 10° N
OBJECT-B 0.7 17:54:14 32° ESE 17:54:47 38° ENE 17:57:11 10° N
Cosmos 1908 Rocket 3.5 17:50:33 10° S 17:54:49 63° E 17:59:07 10° NNE
IRIDIUM 103 4.3 17:50:01 10° S 17:55:14 84° E 18:00:30 10° N
Meteor 2-21 4.4 17:49:28 10° S 17:55:31 87° E 18:01:37 10° NNE
USA 81 4.3 17:51:35 10° N 17:56:42 48° ENE 18:01:48 10° SSE
Cosmos 2360 Rocket 3.2 17:52:59 10° SSE 17:57:14 22° ESE 18:01:29 10° NE
Cosmos 1766 3.4 17:59:05 10° SSW 18:03:01 80° W 18:07:00 10° N
Cosmos 1782 Rocket 3.8 17:58:56 10° SSE 18:03:03 43° E 18:07:12 10° NNE
Cosmos 1025 Rocket 3.1 18:00:20 10° N 18:04:35 53° ENE 18:07:56 16° SSE
YAOGAN 1 3.4 18:03:11 10° S 18:07:24 53° W 18:11:40 10° NNW
ATLAS 2AS CENTAUR R/B 3.8 18:01:41 10° WNW 18:08:32 37° N 18:14:11 14° ENE
Cosmos 2026 Rocket 4.0 18:03:21 10° SSE 18:09:09 51° E 18:15:02 10° NNE
Cosmos 968 Rocket 3.5 18:04:44 10° S 18:09:54 61° ESE 18:15:04 10° NNE
Okean O Rocket 2.2 18:06:55 10° S 18:11:13 58° WSW 18:15:35 10° NNW
Meteor 2-5 Rocket 3.7 18:08:39 10° NNW 18:14:14 85° WSW 18:19:46 10° S
Cosmos 2084 4.3 18:10:56 10° W 18:14:33 40° NNW 18:17:56 12° NE
Lacrosse 4 Rocket 2.3 18:11:08 10° S 18:13:56 27° SE 18:13:56 27° SE
Nadezhda 4 Rocket 4.1 18:10:46 10° SSW 18:17:05 81° W 18:23:26 10° N
Cosmos 1553 Rocket 4.2 18:11:05 10° N 18:17:17 52° ENE 18:21:53 19° SE
CSL-04 Rocket 3.6 18:13:27 12° SSE 18:18:22 71° ENE 18:23:48 10° NNW
Meteor 1-15 Rocket 4.1 18:13:13 10° S 18:18:47 86° ESE 18:24:24 10° NNE
NOSS 3-4 (A) 4.1 18:14:06 10° NW 18:20:29 53° NNE 18:24:38 25° E
NOSS 3-4 (C) 4.1 18:14:11 10° NW 18:20:36 53° NNE 18:24:44 25° E
USA 186 1.7 18:22:41 30° SSE 18:24:12 86° ENE 18:27:36 10° NNW
Cosmos 1726 3.8 18:21:56 10° SW 18:25:19 35° WNW 18:28:43 10° N
Cosmos 2322 Rocket 2.3 18:20:22 10° S 18:25:49 49° ESE 18:31:19 10° NE
Cosmos 2237 4.3 18:20:56 10° S 18:26:25 51° ESE 18:31:56 10° NE
Cosmos 1536 Rocket 4.3 18:23:34 10° N 18:27:29 32° ENE 18:27:34 32° ENE
Landsat 7 3.8 18:25:23 29° SE 18:27:41 59° ENE 18:32:21 10° N
SPOT 1/Viking Rocket 4.1 18:27:16 32° E 18:28:42 39° ENE 18:33:28 10° N
Cosmos 1975 Rocket 3.0 18:25:12 10° NNW 18:29:40 87° WSW 18:33:08 16° S
Cosmos 1470 2.6 18:25:58 10° S 18:29:48 87° ESE 18:33:41 10° NNE
deb Chang Zheng 4 3.7 18:29:32 41° E 18:30:13 46° ENE 18:34:13 10° N
Cosmos 1980 Rocket 3.3 18:26:45 10° WSW 18:32:08 45° NW 18:37:33 10° NNE
Ariane Rocket 3.8 18:36:14 30° ENE 18:36:48 31° ENE 18:41:16 10° N
CRYOSAT 2 4.3 18:34:34 10° S 18:39:28 89° W 18:44:25 10° N
Cosmos 1758 3.7 18:40:19 44° ENE 18:40:19 44° ENE 18:43:30 10° NNE
Cosmos 2292 Rocket 3.9 18:35:16 10° SSW 18:40:04 63° WNW 18:43:45 10° N
USA 215 3.3 18:36:54 19° ENE 18:41:50 81° NNW 18:48:23 10° WSW
USA 281 4.2 18:40:48 24° ENE 18:43:08 30° NE 18:48:40 10° NNW
Aureole 1 Rocket 4.4 18:37:13 10° S 18:43:43 38° ESE 18:49:00 10° NE
IRS-1C Rocket 4.1 18:43:42 21° SSE 18:47:20 83° WSW 18:52:39 10° NNW
Cosmos 1844 Rocket 3.0 18:43:53 10° NW 18:49:30 63° WSW 18:52:59 24° S
Landsat 5 3.6 18:49:29 10° NNE 18:54:01 88° WNW 18:58:29 10° SSW
Cosmos 1943 Rocket 3.8 18:52:08 10° NNW 18:56:03 19° NNE 18:57:29 18° NE
SL-16 R/B 2.2 18:50:24 10° SSW 18:56:05 84° WNW 19:01:49 10° NNE
Cosmos 1092 Rocket 4.2 18:52:20 10° SSW 18:58:38 71° WNW 19:04:54 10° N
Resurs 01 Rocket 1.5 19:01:19 65° ENE 19:01:19 65° ENE 19:05:44 10° N
Terra 3.6 19:03:49 19° NE 19:03:49 19° NE 19:06:18 10° N
SJ-6B 3.9 19:02:07 24° SSW 19:03:52 40° W 19:07:30 10° NNW
Cosmos 2278 Rocket 2.9 18:59:44 10° NNW 19:05:02 38° NE 19:05:41 37° ENE
H-2A R/B 2.4 19:07:11 72° NNW 19:07:11 72° NNW 19:10:41 10° NNW
MetOp-B 4.3 19:08:30 52° ENE 19:08:44 52° ENE 19:13:56 10° N
Gbstr 26 Del rocket 4.4 19:01:36 10° WSW 19:09:26 79° S 19:12:38 41° E
Cosmos 1703 3.6 19:07:01 10° NNW 19:10:10 58° NNW 19:10:10 58° NNW
Resurs 1-3 4.2 19:11:26 35° SSW 19:12:57 53° W 19:17:17 10° NNW
Sich 1 Rocket 4.4 19:15:06 40° NNE 19:15:06 40° NNE 19:18:00 10° NNE
Cosmos 2369 Rocket 4.3 19:11:25 10° NNW 19:14:55 16° NNE 19:17:02 13° NE
Cosmos 921 Rocket 3.3 19:11:37 10° NNW 19:15:35 61° NNE 19:15:35 61° NNE
IRS-1A Rocket 4.2 19:15:25 58° SE 19:16:35 78° ENE 19:22:26 10° NNW
MetOp-A 3.6 19:17:19 65° WNW 19:17:19 65° WNW 19:21:02 10° NNW
Cosmos 1375 Rocket 4.5 19:12:59 10° NW 19:19:33 75° NE 19:20:49 58° ESE
Cosmos 783 Rocket 4.4 19:16:55 10° NNW 19:22:13 81° WSW 19:22:48 70° S
Okean-O 4.0 19:20:29 22° SSW 19:22:45 36° W 19:26:52 10° NNW
CZ-4 R/B 4.4 19:22:12 10° WSW 19:24:31 14° W 19:26:51 10° NW
OBJECT-B 3.8 19:24:56 10° W 19:24:56 10° W 19:25:28 10° WNW
Cosmos 1486 Rocket 4.0 19:20:01 10° SSW 19:25:22 85° WNW 19:30:45 10° NNE
Cosmos 2266 Rocket 4.0 19:26:59 61° E 19:27:07 61° E 19:33:23 10° NNE
Cosmos 1655 Rocket 4.1 19:28:46 57° ENE 19:28:46 57° ENE 19:34:34 10° NNE
S3M 3.9 19:22:20 10° N 19:28:38 87° W 19:30:09 54° S
DNEPR-1 R/B 3.9 19:24:50 10° SW 19:29:45 88° SE 19:30:36 65° NE
Cosmos 773 Rocket 4.2 19:25:05 10° NNW 19:30:23 68° WSW 19:31:00 61° SSW
Spot 2 4.4 19:31:04 62° WNW 19:31:04 62° WNW 19:35:02 10° NNW
Meteor 1-21 Rocket 4.1 19:25:17 10° NNW 19:30:51 83° W 19:31:34 69° S
Cosmos 2333 Rocket 4.0 19:36:34 18° NE 19:36:34 18° NE 19:38:01 10° NE
Cosmos 1300 Rocket 4.5 19:30:15 25° SW 19:32:28 47° WNW 19:36:43 10° N
Meteor 1-11 4.5 19:28:09 10° N 19:33:09 54° NE 19:33:09 54° NE
SPOT 5 4.0 19:36:14 34° NNE 19:36:14 34° NNE 19:39:12 10° N
Cosmos 2360 Rocket 2.2 19:34:57 10° SW 19:40:37 80° WNW 19:46:19 10° NNE
Cosmos 158 Rocket 4.2 19:40:28 10° NNW 19:44:48 62° WNW 19:44:48 62° WNW
Cosmos 883 Rocket 4.4 19:40:45 10° N 19:47:09 90° E 19:47:37 78° S
Lacrosse 4 Rocket 3.7 19:49:08 10° WSW 19:50:17 18° WSW 19:50:17 18° WSW
ATLAS 2AS CENTAUR R/B 3.0 19:53:44 10° NW 20:00:55 55° NNE 20:01:35 53° NE
ERS-1 Rocket 4.0 20:07:13 40° N 20:07:13 40° N 20:10:29 10° NNW
Cosmos 2322 Rocket 3.3 20:04:37 10° WSW 20:10:01 42° NW 20:15:27 10° NNE
NOSS 3-4 (A) 3.9 20:04:59 10° NW 20:11:43 64° SW 20:12:04 63° SW
NOSS 3-4 (C) 3.9 20:05:06 10° NW 20:11:50 64° SW 20:12:10 64° SW
SPOT 3 Rocket 4.3 20:15:04 50° NW 20:15:04 50° NW 20:18:55 10° NNW
Ariane Rocket 3.9 20:16:26 46° WNW 20:16:26 46° WNW 20:20:35 10° NNW
USA 215 3.4 20:24:15 64° NNE 20:24:41 66° N 20:31:10 10° WNW
USA 281 3.2 20:27:40 75° NNW 20:27:40 75° NNW 20:33:38 10° NNW
Aureole 1 Rocket 4.5 20:20:55 10° SW 20:27:47 55° WNW 20:33:09 10° NNE
ADEOS Rocket 4.3 20:32:19 27° NNE 20:32:19 27° NNE 20:35:35 10° N
Resurs 01 Rocket 4.0 20:38:53 18° WNW 20:38:53 18° WNW 20:41:25 10° NW
Terra 3.7 20:42:42 27° NNW 20:42:42 27° NNW 20:44:54 10° NNW
Cosmos 1943 Rocket 3.4 20:35:35 10° NNW 20:38:59 36° N 20:38:59 36° N
SL-16 R/B 4.2 20:36:21 10° W 20:41:02 25° NW 20:45:43 10° NNE
Cosmos 2278 Rocket 3.4 20:43:50 10° NW 20:47:32 38° WNW 20:47:32 38° WNW
Cosmos 2369 Rocket 3.8 20:55:22 10° NNW 20:58:48 29° N 20:58:48 29° N
Cosmos 2219 Rocket 4.1 21:05:13 22° NNE 21:05:13 22° NNE 21:07:17 10° NNE
SJ 16-02 4.4 21:16:01 11° N 21:16:01 11° N 21:16:19 10° N
Cosmos 2333 Rocket 3.8 21:18:31 30° N 21:18:31 30° N 21:22:16 10° NNE
Cosmos 2360 Rocket 4.2 21:20:56 10° W 21:25:31 24° NNW 21:30:05 10° NNE
ATLAS 2AS CENTAUR R/B 4.0 21:45:02 10° NW 21:49:00 34° WNW 21:49:00 34° WNW
Cosmos 2237 Rocket 4.4 23:13:46 21° N 23:13:46 21° N 23:16:16 10° NNE
Cosmos 1980 Rocket 4.3 23:45:56 10° NNW 23:50:19 23° NNE 23:51:09 22° NE
